User: anonymous   Login
Location: Unspecified
(0.0000°N, 0.0000°E)
Time: 12:35:00
(UTC+00:00)
Language:

COSMOS 2438 - Orbit

View from above orbital plane
View from above orbital plane
View from above satellite
View from above satellite

Ground track
Ground track

The orbit data is extracted from the following two-line orbital elements,

1 32955U 08025C   18171.76283023 +.00000035 +00000-0 +18168-3 0  9993
2 32955 082.5012 008.9437 0020644 193.8269 166.2248 12.43303834457320
Epoch (UTC): 20 June 2018 18:18:28
Eccentricity: 0.0020644
inclination: 82.5012°
perigee height: 1476 km
apogee height: 1509 km
right ascension of ascending node: 8.9437°
argument of perigee: 193.8269°
revolutions per day: 12.43303834
mean anomaly at epoch: 166.2248°
orbit number at epoch: 45732

The dashed part of the orbit path shows where the satellite is in the earth's shadow,  

DLR